Dallas Love Field
KDAL : now visible

Aeroporto :











RITROVATECI SU...

 
LOGIN :

Iscrizione | Disclaimer

   EN    FR    IT 

 









Sommario :    VFR   VFR Marginale   IFR   IFR Intensivo   IFR Molto Intensivo
Visibilità : 
Base nubi : 
>= 8 km
>= 3000ft
5 / 8 km
1000 / 3000 ft
1500m / 5 km
500 / 1000 ft
800 / 1500m
200 / 500 ft
< 800m
< 200 ft
Simboli :   Temporali  Nebbia  Neve Forte  Precipitazioni Forti  Vento > 20 kt







- Altitudine del aeroporto : 487 ft
- Codice IATA : DAL


KDAL - Dallas Love Field

ULTIMO METAR :
  • 190153Z 16012G17KT 10SM FEW300 33/21 A2988 RMK AO2 SLP109 T03280206 $

METARs OBSOLETI :
  • 190053Z 17012G20KT 10SM FEW300 34/20 A2987 RMK AO2 SLP108 T03390200 $
  • 182353Z 16015G23KT 10SM FEW070 35/20 A2987 RMK AO2 SLP106 T03500200 10361 20333 56015 $

TAF KDAL
Valido dal 19 a 00 ore il 20 a 00 ore UTC


182320Z 1900/1924 19015KT P6SM FEW060
FIR KZFW / America del Nord



MetMap, La meteo Aeronautica in un colpo d'occhio ! - Copyright ORBIFLY Dicembre 2007 - Disclaimer

ORBIFLY MET'MAP TEAM :

Programmazione e sviluppo : Alexandra Zaïnal
Concezione e sviluppo : Baudouin d'Aumeries
Co-Programmazione e sviluppo : Marc-Olivier Méhu
Supporto tecnico e logistico : Manuel Goepfert
Aiuto per la traduzione : Arnaldo La Scala

Contatto : metmap@orbifly.com




FONTI E CREDITI :

   NOAA       Earth
Advisory